TimeEST,TemperatureF,Dew PointF,Humidity,Sea Level PressureIn,VisibilityMPH,Wind Direction,Wind SpeedMPH,Gust SpeedMPH,PrecipitationIn,Events,Conditions,WindDirDegrees,DateUTC
12:15 AM,21.2,17.6,86,29.98,10.0,ENE,5.8,-,N/A,,Clear,60,2012-12-25 05:15:00
1:15 AM,19.4,15.8,86,29.97,10.0,Calm,Calm,-,N/A,,Clear,0,2012-12-25 06:15:00
1:35 AM,19.4,15.8,86,29.97,10.0,North,5.8,-,N/A,,Partly Cloudy,10,2012-12-25 06:35:00
1:55 AM,21.2,15.8,80,29.97,10.0,Calm,Calm,-,N/A,,Partly Cloudy,0,2012-12-25 06:55:00
2:15 AM,19.4,17.6,93,29.98,10.0,NW,4.6,-,N/A,,Mostly Cloudy,310,2012-12-25 07:15:00
2:35 AM,19.4,17.6,93,29.98,10.0,Calm,Calm,-,N/A,,Mostly Cloudy,0,2012-12-25 07:35:00
2:55 AM,21.2,17.6,86,29.97,10.0,Calm,Calm,-,N/A,,Overcast,0,2012-12-25 07:55:00
3:15 AM,21.2,17.6,86,29.97,10.0,Calm,Calm,-,N/A,,Overcast,0,2012-12-25 08:15:00
3:35 AM,21.2,17.6,86,29.97,10.0,NNE,3.5,-,N/A,,Overcast,30,2012-12-25 08:35:00
3:55 AM,21.2,17.6,86,29.97,7.0,North,4.6,-,N/A,,Overcast,10,2012-12-25 08:55:00
4:35 AM,21.2,17.6,86,29.98,1.8,NW,3.5,-,N/A,,Overcast,310,2012-12-25 09:35:00
5:15 AM,19.4,17.6,93,29.98,1.8,NW,3.5,-,N/A,,Overcast,320,2012-12-25 10:15:00
5:55 AM,21.2,19.4,93,29.99,9.0,Calm,Calm,-,N/A,,Overcast,0,2012-12-25 10:55:00
6:55 AM,21.2,19.4,93,30.02,1.0,North,4.6,-,N/A,,Overcast,350,2012-12-25 11:55:00
7:15 AM,21.2,17.6,86,30.02,2.5,North,3.5,-,N/A,,Overcast,350,2012-12-25 12:15:00
7:35 AM,21.2,19.4,93,30.02,10.0,North,3.5,-,N/A,,Overcast,360,2012-12-25 12:35:00
7:55 AM,21.2,17.6,86,30.03,7.0,NNW,3.5,-,N/A,,Overcast,340,2012-12-25 12:55:00
8:15 AM,21.2,17.6,86,30.04,7.0,North,5.8,-,0.01,,Overcast,350,2012-12-25 13:15:00
8:35 AM,21.2,19.4,93,30.05,7.0,NNW,3.5,-,0.01,,Overcast,340,2012-12-25 13:35:00
9:35 AM,21.2,19.4,93,30.07,9.0,NW,4.6,-,N/A,,Overcast,310,2012-12-25 14:35:00
10:55 AM,21.2,17.6,86,30.09,5.0,North,6.9,-,N/A,,Overcast,350,2012-12-25 15:55:00
11:15 AM,21.2,17.6,86,30.09,9.0,North,8.1,-,N/A,,Overcast,360,2012-12-25 16:15:00
11:35 AM,21.2,17.6,86,30.09,10.0,North,8.1,-,N/A,,Overcast,10,2012-12-25 16:35:00
11:55 AM,23.0,17.6,80,30.08,10.0,North,6.9,-,N/A,,Overcast,350,2012-12-25 16:55:00
12:35 PM,23.0,19.4,86,30.08,10.0,North,5.8,-,N/A,,Overcast,350,2012-12-25 17:35:00
12:55 PM,23.0,17.6,80,30.08,10.0,North,9.2,-,N/A,,Overcast,360,2012-12-25 17:55:00
1:15 PM,21.2,19.4,93,30.08,10.0,North,11.5,-,N/A,,Overcast,10,2012-12-25 18:15:00
1:35 PM,21.2,17.6,86,30.09,10.0,North,8.1,-,N/A,,Overcast,350,2012-12-25 18:35:00
1:55 PM,21.2,17.6,86,30.09,10.0,North,8.1,-,N/A,,Overcast,360,2012-12-25 18:55:00
2:15 PM,21.2,15.8,80,30.10,10.0,North,9.2,-,N/A,,Overcast,360,2012-12-25 19:15:00
2:35 PM,21.2,17.6,86,30.11,10.0,North,9.2,-,N/A,,Overcast,10,2012-12-25 19:35:00
3:15 PM,21.2,15.8,80,30.14,10.0,North,5.8,-,N/A,,Partly Cloudy,10,2012-12-25 20:15:00
3:55 PM,21.2,14.0,74,30.16,10.0,North,9.2,-,N/A,,Clear,350,2012-12-25 20:55:00
4:15 PM,21.2,15.8,80,30.16,10.0,North,6.9,-,N/A,,Clear,350,2012-12-25 21:15:00
4:55 PM,19.4,14.0,80,30.17,10.0,NW,4.6,-,N/A,,Clear,320,2012-12-25 21:55:00
5:15 PM,19.4,12.2,74,30.19,10.0,NW,4.6,-,N/A,,Partly Cloudy,310,2012-12-25 22:15:00
5:55 PM,17.6,12.2,79,30.20,10.0,North,4.6,-,N/A,,Clear,360,2012-12-25 22:55:00
6:15 PM,17.6,14.0,86,30.22,10.0,Calm,Calm,-,N/A,,Clear,0,2012-12-25 23:15:00
6:55 PM,15.8,12.2,86,30.23,10.0,North,4.6,-,N/A,,Clear,350,2012-12-25 23:55:00
7:15 PM,15.8,12.2,86,30.24,10.0,North,4.6,-,N/A,,Clear,360,2012-12-26 00:15:00
7:35 PM,15.8,10.4,79,30.23,10.0,North,4.6,-,N/A,,Clear,350,2012-12-26 00:35:00
7:55 PM,15.8,10.4,79,30.24,10.0,Calm,Calm,-,N/A,,Clear,0,2012-12-26 00:55:00
8:15 PM,15.8,10.4,79,30.24,10.0,North,3.5,-,N/A,,Clear,10,2012-12-26 01:15:00
8:35 PM,14.0,10.4,86,30.25,10.0,Calm,Calm,-,N/A,,Clear,0,2012-12-26 01:35:00
8:55 PM,12.2,10.4,92,30.27,10.0,Calm,Calm,-,N/A,,Clear,0,2012-12-26 01:55:00
9:15 PM,12.2,10.4,92,30.27,10.0,Calm,Calm,-,N/A,,Clear,0,2012-12-26 02:15:00
9:35 PM,10.4,10.4,100,30.27,10.0,Calm,Calm,-,N/A,,Clear,0,2012-12-26 02:35:00
9:55 PM,10.4,6.8,85,30.28,10.0,Calm,Calm,-,N/A,,Clear,0,2012-12-26 02:55:00
10:35 PM,10.4,6.8,85,30.28,10.0,Calm,Calm,-,N/A,,Clear,0,2012-12-26 03:35:00
11:15 PM,10.4,8.6,92,30.28,10.0,West,3.5,-,N/A,,Clear,260,2012-12-26 04:15:00
11:35 PM,10.4,6.8,85,30.29,10.0,SE,3.5,-,N/A,,Clear,140,2012-12-26 04:35:00
11:55 PM,10.4,8.6,92,30.29,10.0,Calm,Calm,-,N/A,,Clear,0,2012-12-26 04:55:00